Location: Newark
(39.6172°N, 96.8533°W)
Time: 14:05:53
(UTC+00:00)

Envisat - Pass Details

Date: 31 January 2020
Orbit: 764 x 766 km, 98.1° (Epoch: 28 February)

Event Time Altitude Azimuth Distance (km) Brightness Sun altitude
Rises 00:21:00 0° 168° (SSE) 3,218 6.3 -7.4°
Reaches altitude 10° 00:23:17 10° 170° (S) 2,296 5.6 -7.9°
Maximum altitude 00:28:21 80° 257° (WSW) 781 3.2 -8.8°
Drops below altitude 10° 00:33:28 10° 345° (NNW) 2,311 5.5 -9.8°
Sets 00:35:47 0° 347° (NNW) 3,241 6.2 -10.2°
